Temp
29 30 31 31 31 31 31 32 31 32 32 33 33 33 33 33 32 31 32 32 32 33 32 32 31 31 32 33 32 34 34 34 34 34 34 34 34 33 33 31 30 28 28 34 38 38 37 40 40 37 36 35 35 36 35 36 37 37 37 37 36 36 36
25 28 30 29 29 29 29 29 30 29 30 29 30 29 30 29 29 29 29 30 29 30 31 31 30 30 31 32 31 31 32 33 33 33 33 33 33 32 32 33 30 30 29 28 34 35 38 38 39 36 41 37 37 37 36 36 36 36 37 36 37 37 37
24 25 27 27 26 26 26 27 28 29 28 28 27 27 27 28 27 27 27 27 28 28 29 28 28 28 29 30 29 29 30 31 31 32 32 31 33 32 33 33 32 30 28 28 30 34 33 35 37 37 38 40 39 38 39 37 35 35 35 35 36 36 37
23 23 24 23 23 24 24 24 25 26 26 25 26 25 25 25 26 26 26 26 26 26 26 25 25 26 27 27 26 26 28 30 30 30 31 30 31 31 31 32 32 31 29 29 28 31 32 35 36 39 39 38 39 36 36 36 37 36 34 34 34 34 35
22 22 22 21 21 21 21 21 22 23 23 24 25 25 24 24 24 24 24 24 25 24 24 24 23 24 24 24 23 24 26 27 27 27 28 28 29 30 30 30 31 30 30 29 27 29 32 34 34 35 38 38 34 34 34 34 34 35 35 34 35 34 34
18 18 19 19 19 19 20 20 20 21 21 22 23 24 24 23 23 24 23 23 24 24 24 23 23 23 24 23 22 23 25 25 24 24 25 25 26 28 28 28 28 29 28 28 27 27 27 30 30 30 32 35 33 31 31 32 33 33 32 32 32 32 33
16 17 17 18 18 18 18 18 19 19 20 21 22 22 22 22 22 23 23 23 24 25 25 24 24 23 24 22 22 22 22 23 23 23 23 24 23 24 24 25 26 26 26 25 25 26 27 27 29 29 28 33 34 33 30 29 29 29 32 33 31 31 33
16 16 16 16 17 17 18 17 18 19 18 19 20 21 21 21 21 21 22 23 23 24 23 23 23 23 23 23 22 22 22 23 23 25 23 25 24 24 24 24 25 25 25 25 24 25 25 28 28 30 31 31 30 28 28 29 27 25 28 30 32 32 31
16 14 15 17 17 17 17 16 16 15 15 17 19 20 20 20 19 20 20 20 21 21 21 22 23 22 23 22 21 21 21 22 23 22 22 24 24 23 23 23 24 25 25 25 25 25 26 26 27 28 28 28 29 28 26 29 29 26 28 29 29 30 33
15 14 14 14 15 15 15 15 15 14 15 18 19 19 19 19 19 18 18 18 18 19 19 20 20 20 20 20 21 21 21 21 21 22 22 22 23 23 22 22 22 22 23 23 22 23 24 23 24 26 26 26 27 29 29 28 27 25 27 28 26 28 30
14 13 13 13 12 13 14 14 14 13 16 18 19 19 18 18 18 18 17 17 16 16 17 18 18 18 19 19 19 19 20 21 21 22 22 22 22 22 22 20 20 20 21 21 21 23 22 22 22 23 25 25 26 27 27 27 27 26 26 25 24 22 28
13 13 12 11 11 11 13 13 12 13 15 17 18 18 18 18 18 17 16 16 14 15 15 15 16 17 17 17 18 18 18 19 20 20 20 21 21 22 22 23 21 19 19 19 19 19 20 20 20 21 23 23 24 24 25 25 25 24 23 22 22 23 23
13 12 11 10 9 10 11 11 11 12 14 16 17 18 18 18 16 16 15 14 12 12 12 13 14 14 15 16 16 17 17 16 17 19 20 20 21 21 22 22 22 23 21 21 19 18 18 20 20 20 21 23 23 24 22 23 22 23 23 23 22 23 25
11 11 9 9 8 9 10 9 10 11 13 15 16 16 17 15 13 14 13 12 11 11 11 11 11 12 13 14 14 15 15 15 16 16 16 16 17 17 18 19 20 21 22 22 21 20 18 20 22 20 21 23 24 21 20 20 20 21 21 21 21 24 25
10 9 8 7 7 7 8 8 9 11 12 14 15 15 16 15 12 13 12 11 11 9 9 9 9 10 11 12 13 14 14 13 13 14 13 13 13 14 15 17 17 17 18 20 21 21 20 20 22 22 22 22 23 22 22 22 20 21 21 22 23 23 24
10 9 7 7 6 6 6 8 9 10 11 12 13 15 14 14 13 11 11 10 10 9 10 10 10 10 10 10 11 12 13 13 13 11 11 10 11 12 13 14 17 18 20 19 20 20 20 21 21 23 22 23 23 23 23 24 24 23 22 21 19 18 22
9 9 8 7 6 5 6 7 8 8 9 11 12 13 13 12 12 12 10 9 9 10 10 10 9 9 10 10 10 11 11 12 12 10 10 10 10 10 10 11 13 15 17 19 20 21 22 23 24 24 25 25 25 24 23 22 19 18 21 18 16 17 19
8 8 8 7 6 5 4 6 7 7 7 9 11 11 10 11 11 10 9 9 9 10 10 10 9 9 8 8 9 10 10 11 11 9 9 8 7 6 7 9 11 12 13 16 16 17 17 18 19 19 20 20 21 21 21 18 14 17 18 14 16 15 18
7 7 8 7 6 5 3 4 5 6 6 7 10 10 10 11 10 9 8 9 9 9 10 10 10 8 9 9 9 10 10 11 10 8 7 7 6 6 6 9 11 11 11 11 11 12 13 14 15 16 16 18 19 20 20 19 18 19 17 15 15 15 16
7 4 5 7 6 5 4 3 4 5 5 6 8 9 9 9 8 7 6 7 8 8 8 9 9 10 8 8 8 8 9 9 9 8 8 8 7 6 6 11 11 11 10 9 10 10 11 11 12 13 14 14 15 16 18 18 19 19 19 16 15 15 15
3 3 3 5 5 5 4 4 3 3 4 5 6 7 7 7 7 7 7 6 6 7 7 9 10 11 10 9 8 8 8 9 10 10 9 8 7 8 9 11 9 9 10 9 9 9 10 12 13 14 15 15 16 18 18 19 19 19 19 18 16 15 15
1 3 3 5 5 4 3 4 2 2 3 4 5 6 6 6 6 7 6 5 5 6 7 7 9 9 9 7 7 7 8 9 9 9 9 8 9 10 10 9 10 10 10 9 10 10 10 11 12 13 14 15 16 17 18 18 18 19 19 19 19 17 15
-0 1 2 3 6 7 5 4 4 2 2 3 4 5 5 5 5 6 6 5 3 5 6 8 7 8 7 7 7 7 8 8 8 8 8 9 9 9 9 9 9 9 8 8 9 9 9 10 11 11 12 14 15 16 17 17 18 18 18 18 19 19 19
4 3 2 2 5 7 8 7 6 4 2 2 3 4 4 5 5 5 5 5 5 6 6 7 7 7 7 7 7 7 7 7 7 7 7 8 8 8 8 8 8 8 8 8 8 7 8 9 11 12 12 13 14 15 16 17 17 17 17 17 17 17 17
5 4 4 4 3 5 7 7 6 5 4 2 2 2 3 3 4 4 4 4 5 6 6 6 6 6 6 6 6 6 6 6 6 7 7 7 7 7 8 7 8 7 7 6 6 7 8 9 10 12 13 13 14 14 15 14 15 16 16 16 16 16 17
4 4 3 3 4 4 5 5 5 4 4 3 2 2 2 3 3 3 3 4 4 5 5 5 5 4 4 4 5 5 5 6 7 7 6 6 6 6 7 7 7 6 6 5 6 6 7 9 11 12 13 13 13 13 13 14 14 14 14 15 15 14 15
3 3 4 4 3 4 4 4 4 4 5 5 5 5 5 4 4 3 3 3 4 4 4 4 4 4 4 5 5 5 5 5 5 5 6 7 7 7 8 7 7 6 5 5 6 6 7 9 11 12 12 11 12 12 13 15 14 13 13 14 14 13 11
3 3 3 3 4 3 3 2 3 4 4 4 5 5 5 5 4 4 5 4 5 4 4 4 4 4 5 5 5 5 5 6 6 6 5 6 7 7 6 6 5 5 5 5 6 6 8 8 9 8 9 10 10 11 12 14 13 12 12 13 12 10 9
3 4 4 3 2 2 2 2 2 3 5 3 3 2 3 3 4 5 4 4 4 3 3 3 3 3 3 3 2 3 3 4 4 4 5 3 3 5 5 5 6 5 5 6 7 6 6 6 7 7 9 9 9 10 11 13 13 13 11 11 11 8 9
1 3 4 2 2 3 1 1 4 4 3 3 3 3 3 3 3 3 3 3 3 2 1 1 1 1 2 2 2 2 2 2 3 3 3 4 4 4 4 4 5 5 5 6 6 6 5 5 6 5 6 7 7 8 10 12 11 10 11 9 8 7 8
0 0 0 1 0 2 2 2 2 2 2 2 2 2 2 2 2 2 2 2 1 0 -0 -0 -0 1 1 1 2 1 1 2 1 1 1 2 3 4 3 3 3 4 5 5 5 5 5 5 5 4 5 5 6 7 8 10 11 11 10 8 8 7 8
-0 0 0 0 0 -0 1 1 1 1 1 1 1 1 1 1 1 1 1 1 1 -2 -2 -0 -1 -0 1 1 0 0 1 1 1 1 1 1 1 1 3 3 3 4 4 4 3 3 3 4 4 4 5 5 6 6 6 7 8 9 9 8 9 8 8
-0 -1 -0 0 0 1 0 0 0 0 0 0 0 0 0 0 0 0 0 -0 -2 -2 -2 -1 -0 -0 0 0 -1 0 0 0 0 0 0 1 0 0 2 3 3 2 1 1 2 2 2 3 4 4 4 4 5 4 4 6 6 8 8 8 7 7 7
-1 -2 -1 -1 -1 -1 -1 -1 -1 -1 -1 -1 -1 -1 -1 -1 -1 -0 -0 -1 -3 -2 -2 -1 -1 -1 -1 -1 -1 -0 -0 -1 -0 -0 -0 0 0 1 1 1 1 1 0 1 2 2 2 3 3 3 3 3 4 5 5 5 5 6 6 6 7 6 7
2 1 -2 -2 -2 -2 -2 -3 -3 -3 -3 -3 -3 -3 -2 -2 -3 -3 -2 -2 -2 -2 -2 -2 -2 -2 -1 -1 -1 -1 -1 -1 -1 -1 -1 -1 -0 -0 0 1 1 1 1 1 2 2 2 3 2 3 3 3 3 3 3 4 4 5 6 5 6 6 6
-0 1 -1 -3 -3 -3 -4 -4 -4 -4 -4 -4 -3 -3 -3 -5 -5 -4 -3 -3 -1 -1 -2 -1 -1 -1 -1 -1 -1 -1 -1 -1 -2 -2 -1 -1 -1 -1 -1 -1 -0 0 0 0 1 1 1 1 2 3 2 3 3 2 1 2 3 4 4 5 5 5 5
MSLP
1016.88 1016.56 1016.32 1016.28 1016.28 1016.32 1016.32 1016.32 1016.32 1016.28 1016.20 1016.12 1016.24 1016.28 1016.36 1016.44 1016.52 1016.56 1016.52 1016.52 1016.68 1016.84 1017.00 1017.12 1017.28 1017.40 1017.48 1017.52 1017.60 1017.52 1017.48 1017.48 1017.56 1017.64 1017.68 1017.60 1017.56 1017.48 1017.44 1017.52 1017.40 1017.00 1016.00 1015.80 1015.96 1015.88 1015.84 1015.96 1016.16 1016.32 1016.60 1016.60 1016.60 1016.80 1016.92 1017.08 1017.12 1017.20 1017.32 1017.36 1017.32 1017.24 1017.24
1017.60 1017.20 1016.80 1016.64 1016.64 1016.64 1016.64 1016.64 1016.60 1016.56 1016.48 1016.60 1016.68 1016.80 1016.80 1016.80 1016.76 1016.72 1016.76 1016.72 1016.80 1016.92 1017.00 1017.12 1017.24 1017.32 1017.44 1017.52 1017.64 1017.68 1017.60 1017.48 1017.40 1017.44 1017.44 1017.40 1017.40 1017.32 1017.20 1017.16 1017.16 1016.76 1016.36 1015.88 1016.04 1015.80 1015.76 1015.76 1016.00 1016.04 1015.84 1016.12 1016.08 1016.24 1016.44 1016.60 1016.68 1016.76 1016.80 1016.84 1016.80 1016.76 1016.64
1018.16 1017.80 1017.48 1017.32 1017.16 1016.96 1016.88 1016.84 1016.80 1016.80 1016.88 1016.96 1017.04 1017.04 1016.96 1016.96 1016.92 1016.88 1016.92 1016.96 1017.00 1017.12 1017.16 1017.32 1017.36 1017.44 1017.48 1017.48 1017.60 1017.64 1017.64 1017.56 1017.48 1017.36 1017.32 1017.32 1017.20 1017.12 1017.04 1016.96 1016.92 1016.84 1016.44 1016.16 1015.96 1015.92 1015.80 1015.72 1015.60 1015.52 1015.28 1015.64 1015.64 1015.64 1015.76 1016.00 1016.12 1016.28 1016.36 1016.40 1016.44 1016.36 1016.24
1018.56 1018.24 1018.04 1017.88 1017.72 1017.56 1017.36 1017.24 1017.12 1017.20 1017.32 1017.44 1017.44 1017.36 1017.28 1017.16 1017.12 1017.12 1017.20 1017.32 1017.40 1017.48 1017.60 1017.68 1017.76 1017.72 1017.72 1017.68 1017.72 1017.72 1017.56 1017.40 1017.32 1017.28 1017.20 1017.12 1017.16 1017.04 1016.96 1016.92 1016.84 1016.68 1016.52 1016.20 1016.00 1015.68 1015.80 1015.40 1015.24 1014.80 1015.44 1015.56 1015.52 1015.44 1015.48 1015.52 1015.56 1015.72 1015.88 1016.00 1016.08 1016.04 1016.00
1018.88 1018.60 1018.32 1018.28 1018.20 1018.12 1017.96 1017.80 1017.64 1017.64 1017.72 1017.76 1017.72 1017.64 1017.56 1017.52 1017.44 1017.40 1017.44 1017.48 1017.60 1017.72 1017.84 1017.92 1018.00 1018.00 1018.00 1018.00 1018.04 1017.80 1017.64 1017.40 1017.40 1017.44 1017.32 1017.24 1017.12 1017.04 1016.92 1016.88 1016.80 1016.56 1016.48 1016.20 1015.92 1015.56 1015.68 1015.48 1015.36 1015.32 1015.32 1015.32 1015.44 1015.40 1015.40 1015.44 1015.44 1015.44 1015.44 1015.52 1015.56 1015.60 1015.60
1019.40 1019.12 1018.88 1018.76 1018.76 1018.68 1018.60 1018.44 1018.32 1018.28 1018.24 1018.12 1018.00 1017.88 1017.80 1017.68 1017.60 1017.56 1017.60 1017.64 1017.68 1017.76 1017.84 1017.92 1018.00 1018.04 1018.04 1018.08 1018.08 1017.84 1017.64 1017.60 1017.68 1017.64 1017.56 1017.48 1017.36 1017.16 1017.04 1016.96 1016.88 1016.80 1016.60 1016.40 1015.96 1015.92 1015.84 1015.76 1015.68 1015.44 1015.28 1015.28 1015.40 1015.44 1015.28 1015.16 1015.16 1015.24 1015.28 1015.36 1015.36 1015.20 1015.24
1019.76 1019.48 1019.36 1019.20 1019.16 1019.12 1019.08 1018.96 1018.84 1018.68 1018.56 1018.36 1018.16 1018.04 1017.92 1017.84 1017.76 1017.76 1017.68 1017.68 1017.68 1017.68 1017.72 1017.80 1017.92 1017.96 1018.00 1018.08 1018.00 1017.96 1017.88 1017.76 1017.72 1017.64 1017.60 1017.48 1017.48 1017.44 1017.40 1017.20 1017.00 1016.84 1016.72 1016.52 1016.20 1015.92 1015.84 1015.76 1015.52 1015.48 1015.28 1015.12 1015.24 1015.28 1015.24 1015.16 1015.04 1014.88 1014.68 1014.72 1014.80 1014.64 1014.68
1020.00 1019.84 1019.80 1019.68 1019.56 1019.48 1019.40 1019.32 1019.16 1018.92 1018.84 1018.64 1018.36 1018.12 1018.08 1017.96 1018.00 1017.88 1017.80 1017.76 1017.76 1017.76 1017.84 1017.88 1017.92 1017.96 1018.00 1018.04 1018.04 1017.96 1017.88 1017.80 1017.68 1017.36 1017.32 1017.12 1017.16 1017.16 1017.24 1017.16 1016.96 1016.84 1016.64 1016.40 1016.16 1015.80 1015.56 1015.36 1015.20 1014.96 1014.80 1014.88 1015.04 1015.20 1015.12 1015.04 1015.12 1014.84 1014.48 1014.40 1014.16 1014.08 1014.12
1020.12 1020.04 1019.96 1019.72 1019.52 1019.48 1019.44 1019.48 1019.40 1019.40 1019.32 1018.92 1018.44 1018.24 1018.24 1018.16 1018.20 1018.12 1018.04 1018.04 1018.00 1018.00 1018.00 1018.00 1017.92 1017.96 1017.92 1018.00 1018.08 1018.08 1018.00 1017.92 1017.80 1017.76 1017.44 1017.20 1017.12 1017.16 1017.12 1017.04 1016.84 1016.64 1016.40 1016.12 1015.80 1015.36 1015.16 1015.12 1014.88 1014.68 1014.64 1014.64 1014.56 1014.60 1014.76 1014.64 1014.68 1014.44 1014.24 1014.20 1014.04 1013.60 1013.60
1020.24 1020.16 1020.04 1020.00 1019.80 1019.72 1019.60 1019.68 1019.68 1019.84 1019.52 1018.96 1018.60 1018.48 1018.44 1018.40 1018.36 1018.36 1018.36 1018.28 1018.28 1018.24 1018.24 1018.24 1018.24 1018.16 1018.16 1018.08 1017.96 1017.92 1017.88 1017.88 1017.84 1017.80 1017.68 1017.48 1017.28 1017.20 1017.12 1017.04 1016.88 1016.68 1016.40 1016.16 1015.92 1015.56 1015.32 1015.12 1014.76 1014.60 1014.56 1014.52 1014.44 1014.40 1014.40 1014.48 1014.64 1014.52 1014.20 1014.16 1014.00 1013.44 1013.32
1020.40 1020.28 1020.24 1020.28 1020.16 1020.00 1019.76 1019.76 1019.84 1019.84 1019.36 1019.00 1018.72 1018.60 1018.52 1018.44 1018.40 1018.36 1018.40 1018.40 1018.44 1018.52 1018.40 1018.36 1018.44 1018.36 1018.24 1018.16 1018.08 1018.00 1017.88 1017.76 1017.68 1017.56 1017.52 1017.48 1017.44 1017.32 1017.20 1017.08 1016.88 1016.72 1016.56 1016.36 1016.00 1015.64 1015.44 1015.16 1015.00 1014.92 1014.84 1014.76 1014.68 1014.60 1014.56 1014.44 1014.44 1014.36 1014.28 1014.16 1014.00 1013.44 1012.84
1020.40 1020.44 1020.44 1020.44 1020.36 1020.20 1019.92 1019.88 1020.00 1019.92 1019.52 1019.20 1018.96 1018.76 1018.64 1018.48 1018.40 1018.48 1018.56 1018.60 1018.80 1018.76 1018.68 1018.60 1018.52 1018.40 1018.36 1018.28 1018.16 1018.12 1018.04 1017.92 1017.80 1017.68 1017.56 1017.40 1017.24 1017.12 1017.00 1016.92 1016.88 1016.80 1016.64 1016.44 1016.24 1015.96 1015.64 1015.52 1015.32 1015.16 1015.12 1015.00 1014.88 1014.84 1014.64 1014.56 1014.48 1014.44 1014.44 1014.24 1014.00 1013.60 1013.16
1020.48 1020.56 1020.68 1020.72 1020.68 1020.52 1020.32 1020.28 1020.28 1020.16 1019.76 1019.40 1019.12 1018.84 1018.68 1018.44 1018.60 1018.72 1018.76 1018.92 1019.16 1019.12 1019.08 1018.84 1018.64 1018.52 1018.36 1018.28 1018.28 1018.20 1018.12 1018.08 1017.92 1017.64 1017.44 1017.24 1017.04 1016.84 1016.68 1016.64 1016.56 1016.56 1016.52 1016.44 1016.36 1016.04 1015.68 1015.56 1015.40 1015.32 1015.16 1015.08 1015.12 1014.96 1014.88 1014.76 1014.60 1014.48 1014.32 1014.12 1013.92 1013.44 1013.04
1020.64 1020.68 1020.92 1021.04 1021.04 1020.76 1020.52 1020.44 1020.32 1020.16 1019.72 1019.36 1019.12 1018.92 1018.68 1018.72 1018.84 1018.88 1018.96 1019.16 1019.24 1019.24 1019.08 1019.00 1018.84 1018.56 1018.44 1018.28 1018.36 1018.28 1018.20 1018.08 1017.84 1017.72 1017.68 1017.56 1017.36 1017.20 1017.00 1016.80 1016.60 1016.40 1016.20 1016.08 1015.96 1015.76 1015.48 1015.28 1015.48 1015.32 1015.08 1015.16 1015.20 1015.24 1015.12 1014.88 1014.72 1014.52 1014.28 1014.08 1013.64 1013.44 1013.20
1020.72 1020.84 1021.00 1021.08 1020.92 1020.64 1020.40 1020.20 1020.16 1019.96 1019.64 1019.40 1019.20 1018.96 1018.80 1018.72 1018.92 1018.88 1018.92 1019.04 1019.16 1019.28 1019.24 1019.16 1019.08 1018.88 1018.68 1018.48 1018.44 1018.24 1018.24 1018.20 1018.08 1017.92 1017.84 1017.72 1017.56 1017.28 1017.04 1016.80 1016.64 1016.52 1016.36 1016.08 1015.80 1015.60 1015.36 1015.28 1015.32 1015.20 1015.04 1015.08 1015.08 1015.08 1014.96 1014.80 1014.64 1014.48 1014.24 1014.00 1013.64 1013.36 1013.20
1020.72 1020.80 1020.80 1020.68 1020.64 1020.48 1020.28 1020.00 1020.00 1019.92 1019.68 1019.48 1019.28 1019.00 1018.84 1018.68 1018.76 1018.84 1018.88 1019.00 1019.08 1019.12 1019.00 1018.92 1018.80 1018.68 1018.56 1018.52 1018.44 1018.32 1018.20 1018.16 1018.08 1018.08 1017.96 1017.76 1017.52 1017.28 1017.08 1016.84 1016.64 1016.48 1016.32 1016.16 1015.92 1015.72 1015.48 1015.24 1015.12 1015.00 1014.84 1014.76 1014.72 1014.60 1014.44 1014.20 1013.92 1013.72 1013.60 1013.52 1013.32 1012.76 1012.40
1020.64 1020.52 1020.48 1020.44 1020.48 1020.48 1020.28 1020.00 1019.96 1020.04 1019.88 1019.64 1019.36 1019.08 1018.92 1018.80 1018.64 1018.56 1018.72 1018.88 1018.96 1018.88 1018.68 1018.60 1018.56 1018.56 1018.48 1018.32 1018.28 1018.20 1018.20 1018.16 1018.04 1017.92 1017.76 1017.56 1017.40 1017.32 1017.28 1016.96 1016.72 1016.56 1016.40 1016.16 1015.88 1015.60 1015.28 1015.00 1014.76 1014.52 1014.28 1014.12 1014.00 1013.92 1014.04 1014.04 1013.76 1013.32 1013.08 1013.04 1012.76 1012.12 1011.92
1020.56 1020.40 1020.32 1020.36 1020.44 1020.44 1020.44 1020.12 1019.96 1020.04 1019.96 1019.72 1019.40 1019.16 1019.04 1018.76 1018.56 1018.60 1018.60 1018.56 1018.44 1018.36 1018.20 1018.16 1018.32 1018.40 1018.44 1018.32 1018.20 1018.12 1018.08 1017.96 1017.80 1017.68 1017.56 1017.56 1017.56 1017.52 1017.32 1016.88 1016.64 1016.48 1016.20 1016.08 1015.88 1015.68 1015.40 1015.16 1014.92 1014.68 1014.52 1014.32 1014.20 1014.12 1014.12 1014.20 1013.96 1013.52 1013.56 1013.44 1012.76 1012.28 1011.64
1020.52 1020.40 1020.24 1020.20 1020.32 1020.32 1020.44 1020.12 1019.88 1019.84 1019.84 1019.64 1019.28 1019.04 1018.88 1018.60 1018.44 1018.40 1018.32 1018.24 1018.16 1018.04 1017.96 1017.88 1018.00 1018.20 1018.20 1018.12 1018.00 1017.96 1017.88 1017.68 1017.64 1017.72 1017.68 1017.68 1017.52 1017.24 1016.96 1016.60 1016.40 1016.32 1016.16 1016.00 1015.84 1015.60 1015.40 1015.04 1014.80 1014.60 1014.36 1014.08 1013.92 1013.84 1013.76 1013.68 1013.48 1013.36 1013.36 1013.00 1012.56 1012.28 1012.08
1020.44 1020.52 1020.28 1020.08 1020.08 1020.04 1020.00 1020.00 1019.76 1019.64 1019.60 1019.48 1019.20 1019.00 1018.88 1018.72 1018.60 1018.48 1018.40 1018.40 1018.20 1018.00 1017.88 1017.80 1017.76 1017.72 1017.84 1017.88 1017.88 1017.84 1017.76 1017.68 1017.64 1017.64 1017.48 1017.36 1017.12 1016.80 1016.60 1016.24 1016.20 1016.16 1016.12 1016.00 1015.84 1015.56 1015.32 1015.08 1014.76 1014.60 1014.24 1014.00 1013.80 1013.64 1013.52 1013.32 1013.16 1013.00 1012.80 1012.60 1012.36 1012.12 1011.96
1020.68 1020.52 1020.32 1019.96 1019.84 1019.72 1019.68 1019.64 1019.68 1019.52 1019.48 1019.36 1019.24 1019.04 1018.96 1018.80 1018.60 1018.52 1018.48 1018.40 1018.28 1018.04 1017.80 1017.52 1017.32 1017.16 1017.24 1017.48 1017.68 1017.72 1017.68 1017.52 1017.32 1017.20 1017.08 1016.92 1016.76 1016.56 1016.40 1016.36 1016.28 1016.04 1015.96 1015.76 1015.56 1015.32 1015.00 1014.64 1014.20 1013.92 1013.64 1013.36 1013.16 1012.92 1012.72 1012.60 1012.48 1012.44 1012.40 1012.24 1012.00 1011.72 1011.48
1020.68 1020.32 1020.00 1019.68 1019.52 1019.40 1019.40 1019.24 1019.40 1019.32 1019.24 1019.16 1019.04 1018.92 1018.88 1018.80 1018.64 1018.56 1018.56 1018.48 1018.20 1017.92 1017.64 1017.44 1017.20 1017.04 1017.12 1017.44 1017.56 1017.52 1017.40 1017.20 1017.04 1016.92 1016.80 1016.64 1016.48 1016.36 1016.32 1016.24 1016.00 1015.80 1015.60 1015.40 1015.08 1014.80 1014.48 1014.16 1013.84 1013.52 1013.20 1012.92 1012.68 1012.52 1012.36 1012.24 1012.08 1012.00 1011.96 1011.88 1011.72 1011.56 1011.44
1020.44 1020.16 1019.76 1019.40 1018.96 1018.68 1018.72 1018.84 1018.88 1018.96 1018.96 1018.88 1018.84 1018.76 1018.72 1018.72 1018.64 1018.56 1018.44 1018.28 1018.08 1017.80 1017.52 1017.20 1017.12 1017.04 1017.16 1017.24 1017.20 1017.12 1016.96 1016.80 1016.72 1016.68 1016.52 1016.36 1016.24 1016.08 1016.04 1015.96 1015.76 1015.52 1015.36 1015.08 1014.80 1014.48 1014.20 1013.92 1013.60 1013.28 1012.92 1012.64 1012.44 1012.20 1012.08 1011.92 1011.80 1011.72 1011.68 1011.60 1011.48 1011.32 1011.16
1019.32 1019.32 1019.20 1019.04 1018.52 1018.20 1018.04 1018.16 1018.20 1018.32 1018.56 1018.60 1018.60 1018.56 1018.48 1018.44 1018.36 1018.32 1018.20 1018.00 1017.76 1017.48 1017.28 1017.12 1017.00 1016.92 1017.00 1016.96 1016.88 1016.80 1016.68 1016.56 1016.52 1016.36 1016.20 1016.12 1016.00 1015.92 1015.84 1015.68 1015.44 1015.24 1015.00 1014.76 1014.52 1014.24 1013.96 1013.60 1013.20 1012.92 1012.64 1012.44 1012.20 1012.00 1011.80 1011.64 1011.52 1011.40 1011.44 1011.40 1011.28 1011.16 1011.00
1018.76 1018.68 1018.56 1018.40 1018.28 1017.92 1017.68 1017.68 1017.80 1017.88 1017.96 1018.24 1018.28 1018.28 1018.24 1018.12 1018.08 1018.00 1017.96 1017.84 1017.48 1017.36 1017.16 1017.04 1017.00 1016.96 1016.92 1016.84 1016.76 1016.64 1016.56 1016.32 1016.12 1016.00 1015.88 1015.80 1015.72 1015.68 1015.52 1015.28 1015.04 1014.80 1014.60 1014.44 1014.20 1013.88 1013.52 1013.16 1012.92 1012.60 1012.32 1012.16 1012.12 1012.00 1011.88 1011.68 1011.40 1011.24 1011.16 1011.08 1011.00 1010.76 1010.56
1018.36 1018.28 1018.20 1018.12 1017.84 1017.64 1017.44 1017.48 1017.52 1017.56 1017.60 1017.76 1017.88 1017.92 1017.88 1017.80 1017.76 1017.72 1017.64 1017.56 1017.32 1017.16 1017.08 1017.00 1016.96 1016.88 1016.76 1016.64 1016.48 1016.28 1016.04 1015.76 1015.56 1015.56 1015.56 1015.60 1015.60 1015.48 1015.20 1014.92 1014.68 1014.52 1014.36 1014.20 1013.88 1013.60 1013.28 1012.88 1012.56 1012.32 1012.08 1011.96 1011.84 1011.72 1011.48 1011.24 1011.04 1010.76 1010.56 1010.48 1010.32 1010.16 1009.92
1018.08 1017.84 1017.60 1017.44 1017.48 1017.40 1017.36 1017.32 1017.20 1017.16 1017.16 1017.24 1017.32 1017.24 1017.16 1017.32 1017.28 1017.32 1017.32 1017.24 1016.96 1016.88 1016.76 1016.68 1016.64 1016.52 1016.36 1016.20 1016.04 1015.92 1015.80 1015.68 1015.56 1015.44 1015.20 1015.00 1014.84 1014.68 1014.56 1014.44 1014.32 1014.24 1014.08 1013.88 1013.64 1013.36 1013.04 1012.72 1012.44 1012.16 1012.00 1011.80 1011.48 1011.24 1010.96 1010.80 1010.68 1010.44 1010.24 1010.12 1010.04 1009.88 1009.68
1017.64 1017.48 1017.28 1017.16 1017.08 1017.12 1017.12 1017.12 1016.92 1016.84 1016.88 1017.00 1016.96 1017.00 1017.00 1016.96 1016.92 1016.88 1016.76 1016.64 1016.56 1016.52 1016.48 1016.44 1016.28 1016.12 1015.84 1015.60 1015.48 1015.32 1015.16 1015.00 1014.80 1014.72 1014.68 1014.56 1014.40 1014.32 1014.28 1014.28 1014.28 1014.20 1014.00 1013.80 1013.52 1013.24 1012.92 1012.64 1012.36 1012.12 1011.84 1011.60 1011.36 1011.04 1010.76 1010.56 1010.40 1010.20 1010.08 1009.96 1009.96 1009.84 1009.56
1017.24 1017.12 1017.04 1017.16 1017.12 1017.04 1016.80 1016.76 1016.72 1016.56 1016.68 1016.96 1017.08 1017.16 1017.00 1016.84 1016.64 1016.44 1016.40 1016.36 1016.44 1016.48 1016.36 1016.16 1015.88 1015.60 1015.36 1015.16 1015.04 1014.88 1014.72 1014.52 1014.36 1014.32 1014.24 1014.36 1014.40 1014.20 1014.00 1013.80 1013.60 1013.44 1013.16 1012.96 1012.84 1012.68 1012.48 1012.32 1012.16 1011.96 1011.72 1011.48 1011.20 1010.88 1010.60 1010.32 1010.08 1009.88 1009.88 1009.84 1009.80 1009.72 1009.40
1017.44 1017.08 1017.00 1017.08 1016.96 1016.92 1016.84 1016.52 1016.24 1016.40 1016.72 1016.84 1016.84 1016.80 1016.76 1016.68 1016.60 1016.52 1016.44 1016.40 1016.40 1016.36 1016.16 1015.80 1015.52 1015.16 1014.92 1014.72 1014.56 1014.44 1014.32 1014.16 1014.04 1014.00 1013.96 1013.76 1013.76 1013.80 1013.64 1013.40 1013.20 1013.00 1012.84 1012.64 1012.56 1012.40 1012.28 1012.16 1012.00 1011.88 1011.64 1011.40 1011.08 1010.68 1010.36 1010.08 1009.96 1009.80 1009.68 1009.72 1009.64 1009.52 1009.24
1017.28 1017.24 1017.24 1017.20 1016.88 1016.60 1016.64 1016.56 1016.52 1016.52 1016.52 1016.48 1016.48 1016.44 1016.40 1016.32 1016.28 1016.24 1016.24 1016.20 1016.20 1015.96 1015.64 1015.28 1014.96 1014.64 1014.44 1014.36 1014.20 1014.12 1014.00 1013.96 1013.92 1013.88 1013.76 1013.60 1013.40 1013.28 1013.16 1013.12 1013.00 1012.72 1012.52 1012.44 1012.32 1012.20 1012.04 1011.96 1011.88 1011.76 1011.52 1011.28 1010.92 1010.64 1010.32 1009.92 1009.60 1009.48 1009.48 1009.44 1009.36 1009.24 1009.00
1016.80 1016.76 1016.76 1016.76 1016.72 1016.60 1016.32 1016.20 1016.20 1016.20 1016.20 1016.16 1016.16 1016.12 1016.08 1016.00 1015.96 1015.92 1015.92 1015.92 1015.92 1015.72 1015.28 1014.96 1014.60 1014.24 1014.00 1013.88 1013.84 1013.80 1013.80 1013.76 1013.68 1013.56 1013.48 1013.36 1013.28 1013.08 1012.80 1012.72 1012.56 1012.40 1012.44 1012.32 1012.24 1012.12 1011.96 1011.76 1011.60 1011.40 1011.16 1010.96 1010.76 1010.60 1010.32 1009.96 1009.60 1009.28 1009.16 1009.08 1008.92 1008.80 1008.68
1016.32 1016.36 1016.32 1016.24 1016.20 1016.16 1016.08 1015.92 1015.92 1015.96 1015.92 1015.92 1015.84 1015.80 1015.76 1015.72 1015.68 1015.64 1015.60 1015.68 1015.52 1015.12 1014.68 1014.36 1014.04 1013.76 1013.64 1013.64 1013.60 1013.52 1013.48 1013.40 1013.32 1013.24 1013.16 1013.00 1012.88 1012.72 1012.52 1012.36 1012.32 1012.48 1012.56 1012.40 1012.20 1012.00 1011.76 1011.52 1011.28 1011.08 1010.92 1010.80 1010.64 1010.48 1010.20 1009.84 1009.52 1009.12 1008.88 1008.72 1008.60 1008.40 1008.40
1015.96 1015.96 1015.88 1015.84 1015.84 1015.80 1015.80 1015.76 1015.72 1015.68 1015.68 1015.64 1015.60 1015.56 1015.48 1015.44 1015.28 1015.16 1015.12 1015.12 1014.84 1014.48 1014.12 1013.80 1013.56 1013.40 1013.36 1013.32 1013.28 1013.20 1013.12 1013.08 1012.96 1012.84 1012.76 1012.64 1012.52 1012.44 1012.32 1012.24 1012.28 1012.28 1012.12 1011.92 1011.72 1011.52 1011.28 1011.12 1010.96 1010.80 1010.68 1010.40 1010.20 1010.00 1009.84 1009.64 1009.36 1009.04 1008.80 1008.56 1008.32 1008.20 1008.04
1014.80 1015.12 1015.56 1015.52 1015.44 1015.44 1015.56 1015.56 1015.52 1015.48 1015.40 1015.36 1015.32 1015.28 1015.24 1015.16 1014.88 1014.52 1014.24 1014.20 1014.16 1014.00 1013.72 1013.44 1013.24 1013.08 1013.00 1012.92 1012.84 1012.76 1012.68 1012.60 1012.56 1012.52 1012.40 1012.28 1012.20 1012.08 1012.00 1011.92 1011.84 1011.72 1011.60 1011.48 1011.28 1011.08 1010.92 1010.72 1010.64 1010.48 1010.32 1010.20 1010.00 1009.80 1009.60 1009.28 1009.08 1008.84 1008.64 1008.44 1008.28 1008.08 1007.96
1014.84 1014.80 1014.96 1015.24 1015.20 1015.20 1015.28 1015.28 1015.24 1015.16 1015.08 1015.00 1014.96 1014.96 1015.00 1014.76 1014.20 1013.84 1013.56 1013.40 1013.24 1013.20 1013.08 1013.00 1012.80 1012.68 1012.56 1012.48 1012.44 1012.40 1012.32 1012.24 1012.20 1012.12 1012.08 1011.96 1011.92 1011.80 1011.68 1011.60 1011.44 1011.32 1011.24 1011.16 1011.04 1010.84 1010.68 1010.56 1010.40 1010.20 1010.00 1009.80 1009.60 1009.60 1009.52 1009.32 1009.08 1008.84 1008.60 1008.48 1008.36 1008.12 1007.92
Wind_Speed
6 5 5 5 5 5 5 4 3 2 1 0 0 1 1 2 2 3 3 3 5 5 6 6 6 7 7 7 7 7 7 7 8 8 9 9 10 11 10 10 11 14 16 12 11 11 9 9 8 7 8 8 7 7 7 10 10 10 9 10 9 9 15
6 5 5 5 5 6 6 6 5 4 3 3 2 1 1 1 1 2 3 3 4 5 5 6 7 7 7 7 8 8 8 8 8 9 9 9 9 10 10 10 11 13 14 15 8 10 10 9 10 13 10 8 8 7 5 8 8 7 9 7 8 8 9
6 6 6 6 6 6 6 6 6 6 5 5 4 3 3 2 2 1 1 2 3 3 3 3 4 5 5 5 7 8 9 9 10 9 10 10 9 10 11 11 12 12 14 14 12 10 11 10 10 11 11 12 10 9 8 8 7 6 6 7 7 8 7
6 5 6 6 6 6 6 6 6 5 6 5 5 5 4 4 4 3 2 1 2 2 3 3 4 4 5 5 5 5 6 7 7 8 8 10 10 11 12 11 11 13 13 13 15 11 10 10 12 11 10 9 10 9 8 9 8 6 7 6 7 8 8
6 6 7 7 7 7 7 7 6 6 5 5 4 4 3 3 3 2 2 2 1 1 2 2 3 4 3 4 5 5 6 6 7 6 7 8 7 8 8 9 11 13 13 15 16 15 11 11 10 9 10 9 8 7 7 7 8 8 6 7 7 6 7
6 6 7 7 7 6 6 6 6 5 5 5 4 4 4 3 3 2 2 2 1 1 1 2 3 3 3 4 5 5 5 5 6 6 7 7 7 7 7 8 9 9 11 12 13 12 11 9 10 9 9 8 8 9 9 9 8 6 6 6 6 7 5
6 6 6 6 6 6 6 6 5 5 5 5 5 4 4 3 3 3 3 2 2 3 3 3 3 4 4 4 5 5 5 6 6 6 7 7 7 7 8 9 9 9 10 11 12 11 10 10 9 10 11 8 9 10 9 9 8 10 8 7 9 9 6
5 5 4 4 4 4 4 4 4 5 5 5 5 4 4 4 3 3 3 3 3 3 3 3 4 4 4 5 5 5 6 6 6 6 7 7 7 7 8 8 9 9 10 10 10 11 10 8 9 8 8 7 6 7 8 7 8 11 10 9 8 9 10
4 5 5 5 4 4 4 4 4 4 6 6 5 5 4 3 3 3 3 3 3 3 3 3 4 4 4 5 7 8 8 8 8 6 7 7 6 7 7 9 9 9 10 11 12 14 12 12 12 11 11 11 10 11 9 7 7 9 9 9 10 11 9
4 4 5 5 5 4 3 3 3 7 10 8 5 4 3 3 2 2 2 3 3 3 3 4 4 5 7 8 8 9 9 9 10 11 9 8 7 7 7 8 8 9 9 10 11 12 11 12 13 11 10 11 10 10 11 11 11 12 11 10 10 11 10
4 4 4 4 4 4 3 3 4 10 10 10 9 6 5 4 3 3 2 2 3 3 4 4 5 5 6 7 7 7 9 10 11 10 10 12 12 11 9 8 9 9 9 10 12 11 11 12 12 11 9 10 10 10 10 10 10 11 11 12 12 14 10
3 3 4 4 5 5 4 4 7 11 11 10 9 7 5 5 3 2 3 3 3 4 5 5 5 5 5 5 6 6 7 8 10 11 12 12 12 12 13 14 12 10 9 10 11 12 13 12 12 12 10 10 10 10 10 11 10 11 12 13 14 13 13
3 3 3 4 5 5 4 4 6 9 10 9 9 9 7 3 2 4 4 3 4 4 5 5 5 5 5 5 8 7 6 7 8 11 12 13 14 15 16 15 16 16 13 10 12 13 14 12 12 12 11 9 10 9 12 11 11 10 12 13 14 14 13
4 3 4 3 4 4 4 4 5 9 10 9 10 9 9 1 1 2 4 4 5 4 5 5 5 5 5 5 6 6 7 7 7 6 6 7 6 6 7 9 12 15 19 18 14 15 16 14 11 13 12 10 9 10 10 10 11 12 12 13 15 14 14
4 4 4 4 4 4 5 4 6 8 9 10 10 10 8 4 1 4 4 4 4 5 5 6 5 6 6 6 6 6 7 7 8 8 7 7 7 7 7 7 8 8 8 9 10 13 14 15 13 14 14 14 11 14 13 13 14 13 13 14 13 13 13
4 4 4 4 4 4 5 5 6 8 9 10 11 11 6 4 5 5 5 5 5 6 6 5 6 5 6 7 7 8 10 9 8 8 9 9 9 8 8 8 8 12 13 12 12 12 13 12 13 17 15 15 14 12 13 13 13 15 13 15 14 17 15
4 4 4 5 4 5 6 6 5 6 8 10 11 9 5 5 5 5 5 6 5 6 6 6 6 6 6 7 7 8 9 10 10 8 9 9 10 8 9 10 9 12 16 18 20 22 24 25 25 25 25 24 25 18 14 11 11 12 11 12 14 14 14
5 5 4 5 5 4 5 6 6 7 8 9 10 8 6 5 5 6 6 7 6 5 5 6 9 9 7 7 8 9 9 10 9 9 9 10 11 13 11 10 8 7 8 12 15 17 19 21 21 22 23 23 23 22 17 12 12 11 9 10 11 12 11
4 5 5 5 5 6 7 7 7 7 8 9 9 7 6 5 6 6 6 6 6 5 5 6 7 11 10 9 8 10 10 11 9 8 9 9 10 11 11 9 8 9 9 9 9 10 10 12 14 13 12 12 17 18 17 14 14 12 10 11 11 12 11
5 5 6 5 5 5 5 6 7 6 9 9 9 8 5 5 6 7 6 6 7 6 6 6 7 8 11 11 10 10 10 10 11 10 10 9 9 10 11 8 8 9 9 11 11 12 11 13 13 12 13 12 12 14 14 15 13 13 13 13 13 12 11
5 6 7 6 6 6 6 6 7 7 9 9 8 9 7 5 6 6 6 7 7 7 7 7 6 6 7 8 8 9 11 12 13 12 10 10 10 10 10 11 10 12 13 11 12 12 12 10 10 10 10 10 10 10 10 11 12 13 13 12 12 12 12
6 6 7 7 7 7 7 7 9 7 7 8 8 8 8 6 6 6 6 8 7 7 7 7 7 7 6 7 9 11 13 14 13 13 10 10 13 15 15 12 10 10 10 9 9 9 10 10 9 9 9 9 9 9 10 10 11 11 12 12 12 13 13
8 7 7 7 6 6 6 5 5 9 7 8 9 9 9 10 8 10 8 8 9 8 8 7 7 7 9 11 12 13 14 14 15 13 11 14 14 14 15 13 10 10 9 9 9 9 9 9 9 9 9 9 9 9 9 10 10 11 12 12 12 12 12
6 6 7 7 7 6 5 5 4 5 7 7 8 9 10 11 11 11 8 8 8 8 8 8 8 8 11 13 15 16 16 16 16 12 15 16 15 15 14 10 9 9 9 9 9 9 9 9 9 9 9 9 9 9 9 9 10 11 12 13 13 14 14
6 6 6 6 7 7 6 5 4 4 5 7 8 10 11 12 12 12 12 9 9 9 9 11 14 15 16 17 17 18 18 15 15 16 14 13 13 13 9 9 9 9 8 9 10 9 9 9 9 9 9 9 9 10 10 10 10 11 13 13 14 14 14
8 7 6 6 6 6 6 5 5 5 5 5 7 8 10 12 12 12 13 13 11 14 16 16 17 20 20 18 16 11 9 8 8 10 12 14 15 10 9 9 9 9 9 10 9 9 9 9 9 9 9 10 10 10 10 9 9 10 10 10 10 11 11
9 9 9 9 6 6 6 6 5 5 4 4 4 5 7 7 8 10 12 10 9 11 10 11 11 10 12 12 15 16 16 15 14 12 11 9 8 7 8 8 8 8 9 9 9 9 9 9 9 9 9 9 9 9 9 9 9 10 10 9 9 10 11
9 10 10 9 8 7 6 6 6 5 4 4 5 6 6 6 6 6 6 7 7 7 8 8 10 12 10 10 9 9 8 8 8 8 8 8 7 7 7 9 11 12 10 10 10 10 10 10 9 9 9 9 9 9 9 9 10 10 10 9 9 10 11
9 9 8 7 8 9 10 8 7 5 4 6 7 7 7 7 7 6 7 7 9 8 9 9 9 9 9 8 8 8 8 7 7 7 7 8 8 7 7 7 7 8 8 8 8 9 9 9 8 9 8 8 9 9 9 9 10 10 9 9 8 10 10
11 10 7 7 8 8 9 9 6 7 10 12 13 13 14 14 14 14 12 12 14 11 10 9 9 9 9 8 8 8 8 7 7 7 7 7 8 7 7 7 7 8 8 8 8 8 9 9 8 9 8 8 9 9 8 9 9 10 9 8 8 9 9
18 18 17 11 9 9 13 15 17 17 17 17 16 15 15 15 15 15 14 14 10 9 9 9 9 9 9 9 8 8 8 8 8 8 8 8 8 8 8 8 8 8 7 7 8 8 8 8 8 8 8 9 9 9 9 8 8 9 9 9 9 9 9
16 17 16 18 16 13 10 13 15 15 15 15 15 15 15 15 15 15 15 13 12 10 10 9 10 9 9 8 8 8 8 8 8 8 8 8 8 8 8 8 8 8 7 7 7 8 8 8 8 8 8 8 9 8 9 9 9 8 9 9 8 9 9
14 15 16 16 16 18 16 15 14 15 16 17 17 16 15 15 15 15 14 13 10 10 10 9 10 9 9 8 9 9 8 8 8 8 8 8 8 8 8 8 8 7 7 8 8 8 8 8 8 8 8 8 8 8 9 9 9 9 9 9 9 9 8
14 15 15 15 16 16 16 16 16 16 16 16 16 15 15 14 11 13 14 12 10 9 10 9 9 9 9 9 9 9 8 8 8 8 8 8 8 8 8 8 8 7 8 8 8 8 8 8 8 8 8 8 8 8 8 8 9 9 9 9 9 9 8
7 8 13 11 10 12 14 15 16 16 15 15 14 14 13 13 10 9 9 10 10 10 10 10 10 9 9 9 9 8 8 8 8 8 8 8 7 7 7 7 7 8 8 8 8 8 8 8 8 8 8 8 8 8 8 8 8 9 9 9 9 8 8
9 8 7 12 14 15 15 16 16 16 15 14 14 13 11 8 9 8 9 9 9 9 10 10 10 9 9 9 9 8 8 8 8 8 8 8 7 8 7 8 8 7 7 7 8 8 9 9 8 8 8 8 9 10 10 9 9 9 9 9 9 8 8
Wind_Direction
25 31 40 49 51 47 46 50 45 41 58 203 178 247 240 242 223 219 230 231 238 237 240 246 247 246 247 251 253 253 253 249 248 245 244 243 244 244 240 237 243 253 266 269 262 270 268 263 256 241 200 210 205 203 208 216 227 228 231 234 238 240 236
12 17 33 48 51 51 49 45 45 38 40 39 32 29 11 333 287 252 247 251 250 251 251 251 251 250 250 251 249 252 255 255 251 250 247 246 244 244 246 240 246 254 263 270 264 265 264 267 257 263 243 219 217 210 201 218 218 221 225 229 235 238 243
13 14 27 36 37 43 44 42 42 40 39 40 36 33 37 34 31 3 319 284 274 275 275 264 256 254 250 250 250 247 251 252 255 252 251 252 250 250 249 249 249 257 263 270 271 266 270 264 263 261 264 255 248 241 216 215 216 218 217 220 230 238 241
15 24 28 33 31 33 36 39 42 45 42 37 32 29 30 31 31 30 9 335 300 287 278 265 260 254 250 253 253 247 250 248 249 250 252 253 252 253 254 254 254 253 261 271 275 266 262 266 266 264 252 251 254 243 242 246 246 207 214 218 219 231 240
16 22 27 26 23 21 24 25 28 34 33 32 28 28 31 34 42 44 41 20 355 326 295 282 268 271 258 256 253 255 248 249 249 249 255 257 255 256 257 255 255 257 259 265 267 271 266 270 268 267 266 261 260 252 245 241 238 244 236 229 225 227 230
15 22 23 28 23 21 18 18 22 25 24 19 20 22 19 15 12 18 15 11 356 333 318 280 277 271 263 253 247 256 262 260 253 254 257 258 258 262 264 263 262 263 265 264 267 269 273 261 265 267 261 260 258 257 258 258 254 233 219 238 247 234 214
20 19 22 22 22 22 16 12 15 17 14 16 16 17 18 8 8 359 343 344 326 309 298 293 288 285 277 267 262 259 259 260 258 252 250 250 252 252 258 261 261 264 263 263 268 269 265 268 261 260 265 256 251 249 252 260 263 261 254 239 233 243 222
26 21 22 19 22 23 23 13 14 15 11 2 354 0 10 1 1 352 351 348 337 328 315 310 304 296 293 285 279 275 273 267 266 265 258 258 253 253 252 253 258 258 259 261 262 265 269 260 266 257 256 260 250 247 247 241 250 260 258 256 258 250 250
25 21 17 13 17 17 17 15 15 14 354 338 345 352 351 354 348 349 344 338 330 325 327 316 304 297 294 309 299 286 279 278 277 275 272 267 260 256 253 257 259 259 259 262 265 268 267 269 266 264 266 265 259 257 260 266 252 255 259 263 265 264 256
13 24 17 7 2 1 4 5 19 347 333 336 340 342 338 334 334 330 312 311 313 311 307 306 304 306 309 307 306 307 302 292 279 268 262 266 273 262 255 254 256 256 257 262 265 266 272 270 267 267 266 266 266 270 275 271 265 265 268 267 262 265 260
359 16 10 3 348 343 344 351 358 340 338 344 343 343 332 321 309 304 313 324 329 314 310 308 307 302 299 301 303 300 296 296 295 293 288 274 262 259 260 261 257 254 257 261 264 269 268 268 272 274 276 273 276 277 273 269 268 267 269 267 269 271 269
340 355 1 353 345 333 332 336 343 336 334 332 333 330 320 301 257 260 303 301 310 304 304 299 297 296 299 293 292 299 295 288 287 288 291 288 283 276 265 256 255 260 262 260 263 265 264 267 269 274 273 273 275 276 274 270 268 265 261 266 265 264 267
315 322 343 343 331 318 306 305 320 319 318 320 322 323 319 288 117 279 274 282 293 294 293 294 295 294 290 290 292 289 289 291 286 280 278 279 280 275 269 268 266 262 261 264 267 269 269 265 274 275 271 274 276 277 274 273 269 268 268 263 260 262 268
277 285 300 304 290 287 285 282 304 311 312 318 321 323 320 280 138 281 271 261 271 275 277 279 281 280 278 277 284 284 281 281 283 303 314 309 301 294 295 298 286 276 267 262 262 264 266 269 270 271 276 280 285 283 277 276 274 273 269 267 264 267 268
278 280 284 282 285 289 294 286 303 311 314 314 319 316 318 285 256 277 261 251 254 266 266 266 262 262 265 268 268 271 278 284 284 287 294 297 293 292 291 286 285 286 289 278 267 267 270 274 274 273 274 273 268 268 269 270 271 268 271 274 279 278 269
274 278 282 288 298 297 296 300 302 309 312 314 314 315 309 287 276 267 257 258 260 262 267 256 257 259 263 266 266 265 269 275 283 285 284 282 280 283 282 278 275 281 279 278 273 271 273 272 271 270 269 268 265 265 264 262 260 262 257 257 258 260 260
283 287 293 295 294 291 290 292 291 297 305 307 306 311 301 289 272 262 258 255 259 265 258 260 255 260 264 264 260 263 274 279 280 278 278 278 280 283 287 282 285 284 282 280 278 276 276 276 278 278 278 280 279 279 279 280 277 267 263 256 254 255 258
293 286 283 280 280 276 284 284 281 287 295 298 298 301 293 284 276 272 271 276 272 269 268 263 260 259 255 256 261 267 273 277 280 280 281 284 285 285 280 277 276 276 275 280 282 284 284 284 283 283 283 282 282 283 285 281 273 272 279 278 276 278 274
279 280 279 268 264 275 274 276 280 285 294 298 299 302 294 287 285 283 283 288 286 278 273 274 256 245 244 249 256 268 275 279 286 286 281 279 275 273 272 273 281 280 283 285 286 282 285 284 282 284 282 283 283 280 275 267 268 274 267 264 264 266 273
273 278 279 278 267 262 265 274 281 286 291 294 292 293 294 287 278 274 275 275 280 284 278 273 263 252 242 247 258 269 278 282 280 274 271 269 269 270 274 282 284 284 285 285 282 282 282 279 278 277 275 272 269 268 265 263 261 261 261 260 262 261 260
278 278 277 276 267 263 256 249 260 269 271 276 278 278 278 269 262 264 271 278 280 278 277 274 264 268 262 262 264 270 277 278 277 276 275 269 265 267 276 286 284 282 281 278 278 276 275 272 271 269 267 267 265 261 259 257 255 253 253 257 261 262 261
268 267 271 270 263 253 249 241 228 255 262 263 268 273 276 274 266 266 273 275 271 269 268 267 270 276 278 276 277 280 280 278 278 280 281 275 275 278 279 279 278 280 278 274 275 274 273 274 274 275 272 272 272 268 266 265 262 259 256 254 255 260 264
261 259 260 266 268 261 246 237 236 230 246 257 262 269 273 270 271 268 267 266 268 267 268 271 273 275 279 283 285 286 284 283 284 285 276 275 276 277 280 281 277 273 271 270 269 268 269 270 271 272 272 271 271 270 266 264 262 261 261 261 262 264 268
245 245 253 258 267 262 259 245 246 232 230 249 258 264 270 273 272 269 264 268 269 271 271 273 274 279 286 288 289 288 287 286 283 278 279 278 278 278 278 274 271 264 261 263 264 264 266 267 268 268 270 268 267 269 274 275 273 267 263 261 260 262 264
250 252 261 263 263 267 265 257 244 252 236 234 252 262 267 272 273 272 269 265 263 261 263 266 272 278 281 284 285 284 283 279 272 266 265 268 275 279 273 267 261 261 261 261 263 265 268 271 271 271 275 280 284 286 286 277 271 265 266 266 266 265 263
263 260 255 256 260 263 267 266 269 259 252 235 241 249 257 260 266 267 265 261 263 266 269 271 274 276 277 277 273 269 263 260 263 267 271 275 275 270 263 258 257 258 258 258 262 264 267 270 275 275 278 280 277 274 270 272 271 271 266 262 261 263 260
261 265 266 267 259 264 269 272 272 268 260 245 246 262 268 257 254 251 252 255 255 256 258 260 261 265 268 269 268 267 268 268 269 268 262 256 253 252 252 252 251 252 256 259 261 266 268 273 276 280 280 277 277 273 271 269 271 269 269 267 266 265 267
257 260 264 266 269 270 270 267 262 259 253 247 269 274 268 258 258 258 257 256 259 262 267 272 271 269 263 260 258 255 252 251 251 251 255 259 262 260 257 260 264 263 260 259 260 264 267 269 270 272 272 275 273 272 270 269 266 265 265 264 263 263 263
261 261 263 261 264 267 270 265 260 253 260 271 272 268 272 271 267 268 267 267 275 282 279 274 268 263 260 254 252 253 253 256 254 255 259 263 268 267 261 256 249 245 245 246 250 254 259 266 270 272 273 274 273 270 270 266 264 262 260 262 259 260 264
253 258 266 260 258 252 254 262 267 285 280 275 275 271 268 267 267 269 271 275 279 279 278 271 266 260 257 255 250 252 254 257 258 259 265 270 263 261 261 260 253 251 252 254 254 258 262 264 267 270 271 273 274 276 271 266 263 264 259 258 257 259 261
245 250 251 252 263 259 252 259 266 271 274 276 276 273 269 267 266 266 268 271 276 269 260 262 258 258 254 252 249 249 253 257 259 260 261 268 270 267 263 259 255 256 257 255 255 258 259 262 264 267 269 269 272 275 276 274 267 259 254 252 254 255 258
250 250 250 250 250 255 267 263 262 265 269 272 273 271 269 268 268 268 268 267 266 265 260 256 256 255 252 247 246 250 255 255 256 257 255 258 259 264 266 259 258 260 257 259 262 261 260 260 261 263 264 266 269 271 273 273 272 265 257 251 250 250 252
248 248 252 253 251 252 255 262 270 273 274 275 275 274 272 270 270 269 266 264 257 249 255 252 252 251 248 246 249 255 253 254 255 254 257 256 256 260 265 258 258 259 257 259 258 259 260 260 260 259 261 262 262 262 264 265 264 263 260 259 256 252 248
244 246 250 250 252 256 260 262 264 267 272 274 274 274 274 273 272 268 260 250 250 248 251 252 252 249 247 250 254 256 256 254 255 254 255 257 254 254 257 257 256 251 251 253 252 250 252 253 253 253 256 259 260 259 261 261 261 263 262 260 255 255 254
276 237 226 238 249 253 253 256 259 264 269 272 273 273 274 278 273 264 251 235 230 238 244 249 248 249 252 253 253 254 252 256 255 256 256 254 255 254 255 257 254 255 256 255 256 255 256 255 255 256 255 258 259 258 256 256 257 256 257 258 258 258 258
276 278 260 225 237 249 254 256 258 264 268 270 270 271 272 266 257 255 249 243 243 242 247 250 252 253 255 257 253 256 255 255 255 252 253 253 253 255 255 257 257 257 257 255 257 259 261 260 257 255 254 254 253 252 253 255 256 256 255 256 259 262 264